TimeCDT,TemperatureF,Dew PointF,Humidity,Sea Level PressureIn,VisibilityMPH,Wind Direction,Wind SpeedMPH,Gust SpeedMPH,PrecipitationIn,Events,Conditions,WindDirDegrees,DateUTC
12:52 AM,51.1,46.0,83,30.09,10.0,South,6.9,-,N/A,,Clear,170,2013-09-14 05:52:00
1:52 AM,46.0,44.1,93,30.10,10.0,South,6.9,-,N/A,,Clear,180,2013-09-14 06:52:00
2:52 AM,45.0,43.0,93,30.10,10.0,South,5.8,-,N/A,,Clear,180,2013-09-14 07:52:00
3:52 AM,44.1,42.1,93,30.09,10.0,South,6.9,-,N/A,,Clear,190,2013-09-14 08:52:00
4:52 AM,43.0,42.1,97,30.09,10.0,South,5.8,-,N/A,,Clear,190,2013-09-14 09:52:00
5:52 AM,44.1,42.1,93,30.08,10.0,South,6.9,-,N/A,,Clear,180,2013-09-14 10:52:00
6:52 AM,42.1,41.0,96,30.08,10.0,South,5.8,-,N/A,,Clear,180,2013-09-14 11:52:00
7:52 AM,44.1,43.0,96,30.09,10.0,South,5.8,-,N/A,,Clear,190,2013-09-14 12:52:00
8:52 AM,52.0,46.9,83,30.07,10.0,South,9.2,-,N/A,,Clear,180,2013-09-14 13:52:00
9:52 AM,60.1,46.9,62,30.06,10.0,South,10.4,-,N/A,,Clear,190,2013-09-14 14:52:00
10:52 AM,69.1,48.0,47,30.03,10.0,South,13.8,20.7,N/A,,Mostly Cloudy,190,2013-09-14 15:52:00
11:52 AM,68.0,46.9,47,30.03,10.0,SSW,16.1,24.2,N/A,,Mostly Cloudy,210,2013-09-14 16:52:00
12:52 PM,70.0,46.0,42,30.00,10.0,SSW,20.7,28.8,N/A,,Mostly Cloudy,200,2013-09-14 17:52:00
1:52 PM,72.0,46.9,41,29.97,10.0,South,19.6,26.5,N/A,,Scattered Clouds,190,2013-09-14 18:52:00
2:52 PM,71.1,48.0,44,29.95,10.0,SSW,13.8,21.9,N/A,,Scattered Clouds,200,2013-09-14 19:52:00
3:52 PM,71.1,48.0,44,29.93,10.0,South,13.8,21.9,N/A,,Overcast,190,2013-09-14 20:52:00
4:52 PM,71.1,46.9,42,29.91,10.0,South,12.7,-,N/A,,Overcast,180,2013-09-14 21:52:00
5:52 PM,69.1,51.1,53,29.90,10.0,South,10.4,-,N/A,,Overcast,180,2013-09-14 22:52:00
6:52 PM,64.9,54.0,68,29.88,10.0,South,13.8,20.7,0.00,,Overcast,180,2013-09-14 23:52:00
7:52 PM,62.1,55.9,80,29.86,10.0,South,11.5,-,0.01,Rain,Light Rain,170,2013-09-15 00:52:00
8:52 PM,62.1,55.0,78,29.85,4.0,South,13.8,-,0.05,Rain,Heavy Rain,190,2013-09-15 01:52:00
9:52 PM,62.1,55.9,80,29.85,10.0,South,8.1,-,0.04,,Overcast,190,2013-09-15 02:52:00
10:52 PM,62.1,55.9,80,29.85,10.0,SSW,5.8,-,N/A,,Overcast,200,2013-09-15 03:52:00
11:52 PM,63.0,55.9,78,29.84,10.0,South,6.9,-,N/A,,Mostly Cloudy,190,2013-09-15 04:52:00